[[{"header":{"parameterUnit":"m.s-1","parameterCategory":1,"la1":30.2991,"la2":30.254,"lo1":-89.0895,"lo2":-89.0444,"dy":0.0017,"dx":0.0017,"nx":28,"ny":28,"refTime":"2024-12-25T03:00:00:Z","depth":0,"parameterNumber":2,"parameterNumberName":"U-component_of_WINDS"},"data":[0,0,0,0,0,0,0,0,0,0,0,0,0,0,0,0,0,0,0,0,0,0,0,0,0,0,0,0,0,0,0,0,0,0,0,0,0,0,0,0,0,0,0,0,0,0,0,0,0,0,0,0,0,0,0,0,0,0,-7.6032,-7.6034,0,-7.6138,-7.6139,-7.614,-7.6107,-7.6105,-7.6103,-7.6101,-7.6205,-7.621,-7.6215,0,0,0,0,0,0,0,0,0,0,0,0,0,-7.5802,-7.5806,-7.6032,-7.6034,-7.6035,-7.6138,-7.6139,-7.6141,-7.6107,-7.6105,-7.6102,-7.6099,-7.6204,-7.621,-7.6215,0,0,0,0,0,0,0,0,0,0,0,0,0,-7.5904,-7.5807,-7.6032,-7.6031,-7.6032,-7.6137,-7.6139,-7.6141,-7.6108,-7.6105,-7.6101,-7.6098,-7.6202,-7.6209,-7.6216,-7.6328,0,0,-7.6239,-7.6242,0,0,0,0,0,0,0,0,-7.5898,-7.5912,-7.603,-7.6031,-7.6032,-7.6106,-7.6096,-7.6204,-7.6109,-7.6079,-7.61,-7.6097,-7.6175,-7.6184,-7.6211,-7.6333,-7.6338,-7.6239,-7.6244,-7.6247,-7.6249,0,0,0,0,0,0,0,-7.5891,-7.5908,-7.6074,-7.6032,-7.6033,-7.6025,-7.6036,-7.6116,-7.6144,-7.6081,-7.6079,-7.6092,-7.6175,-7.6204,-7.6213,-7.6339,-7.6239,-7.6245,-7.625,-7.6253,-7.656,-7.6563,0,0,0,0,0,0,-7.5883,-7.5902,-7.6071,-7.6077,-7.5956,-7.6032,-7.6044,-7.6086,-7.6143,-7.6149,-7.6095,-7.609,-7.6193,-7.6205,-7.6217,-7.6351,-7.6247,-7.6254,-7.6258,-7.6556,-7.656,-7.6565,0,0,0,0,0,0,-7.5878,-7.5899,-7.6066,-7.5989,-7.601,-7.6039,-7.6087,-7.609,-7.6119,-7.6154,-7.6158,-7.612,-7.6191,-7.6207,-7.6301,-7.6354,-7.6257,-7.6263,-7.6551,-7.6557,-7.6562,-7.6621,0,0,0,0,0,0,-7.5872,-7.5897,-7.594,-7.599,-7.6014,-7.6149,-7.609,-7.6094,-7.6132,-7.6127,-7.6178,-7.6183,-7.619,-7.6291,-7.6309,-7.6363,-7.6269,-7.6547,-7.6554,-7.6561,-7.6614,-7.6628,-7.664,0,0,0,0,0,-7.5864,-7.5951,-7.5942,-7.5963,-7.6068,-7.6152,-7.6166,-7.6172,-7.6136,-7.6179,-7.6202,-7.6182,-7.6347,-7.63,-7.632,-7.6378,-7.6543,-7.6552,-7.656,-7.6609,-7.6625,-7.6639,0,0,0,0,0,0,-7.5904,-7.5957,-7.5948,-7.6054,-7.6099,-7.6146,-7.62,-7.6189,-7.6244,-7.6236,-7.6242,-7.6254,-7.635,-7.6374,-7.6322,-7.649,-7.644,-7.6453,-7.647,-7.6486,-7.6498,-7.6489,-7.6275,0,0,0,0,0,-7.5926,-7.599,-7.6033,-7.6123,-7.6146,-7.617,-7.6207,-7.6208,-7.6254,-7.6273,-7.6302,-7.6347,-7.6409,-7.645,-7.6509,-7.662,-7.663,-7.6669,-7.6682,-7.6692,-7.6702,-7.6762,-7.678,-7.6592,-7.6592,-7.6592,0,0,-7.597,-7.6007,-7.6047,-7.6132,-7.6167,-7.6233,-7.6186,-7.6257,-7.6306,-7.6283,-7.6374,-7.6398,-7.6449,-7.6552,-7.6599,-7.6575,-7.6757,-7.6703,-7.6711,-7.6715,-7.6773,-7.679,-7.6806,-7.6598,-7.6597,-7.6596,0,0,-7.6083,-7.6119,-7.6198,-7.6235,-7.6289,-7.6305,-7.6324,-7.6374,-7.639,-7.6482,-7.6466,-7.6525,-7.6632,-7.6669,-7.6701,-7.6834,-7.6817,-7.6854,-7.6918,-7.6977,-7.6992,-7.7005,-7.705,-7.7067,-7.6864,-7.6865,-7.6865,0,-7.6131,-7.623,-7.6239,-7.6313,-7.6351,-7.6336,-7.6416,-7.6451,-7.6521,-7.6547,-7.652,-7.6655,-7.6689,-7.68,-7.6833,-7.6861,-7.6882,-7.6845,-7.6989,-7.7002,-7.7014,-7.7058,-7.7075,-7.6868,-7.6868,-7.6868,-7.6867,0,-7.6285,-7.6355,-7.6412,-7.6482,-7.6527,-7.6603,-7.6624,-7.6668,-7.6668,-7.6687,-7.6781,-7.6822,-7.6889,-7.6916,-7.6915,-7.7029,-7.7012,-7.6987,-7.6936,-7.7036,-7.7077,-7.7094,-7.6874,-7.6873,-7.6871,-7.687,0,0,-7.6421,-7.6499,-7.6519,-7.6552,-7.6613,-7.6666,-7.6743,-7.6811,-7.6848,-7.6899,-7.6962,-7.7055,-7.7034,-7.7071,-7.7075,-7.7128,-7.7229,-7.7097,-7.7098,-7.7117,-7.7355,-7.737,-7.739,-7.7221,-7.7224,-7.7226,-7.735,0,-7.6538,-7.6673,-7.6685,-7.6806,-7.687,-7.686,-7.6927,-7.6971,-7.6993,-7.705,-7.7074,-7.7139,-7.7106,-7.7129,-7.7181,-7.7206,-7.7276,-7.7198,-7.7277,-7.728,-7.7261,-7.7411,-7.7427,-7.7542,-7.7366,-7.7369,-7.7371,0,-7.6691,-7.6748,-7.6875,-7.6929,-7.6957,-7.7016,-7.708,-7.7136,-7.7187,-7.7199,-7.7243,-7.7241,-7.732,-7.727,-7.7379,-7.7325,-7.736,-7.7378,-7.7382,-7.7386,-7.7328,-7.7417,-7.7579,-7.7594,-7.7397,-7.7395,-7.7393,0,-7.6774,-7.6883,-7.6974,-7.7002,-7.7068,-7.711,-7.7139,-7.7188,-7.7228,-7.7285,-7.7311,-7.7376,-7.741,-7.746,-7.7476,-7.7439,-7.7584,-7.7535,-7.7594,-7.7594,-7.7621,-7.7618,-7.7788,-7.765,-7.765,-7.765,-7.7649,0,-7.6901,-7.6978,-7.7012,-7.7067,-7.7155,-7.717,-7.7256,-7.7283,-7.7327,-7.7387,-7.7384,-7.744,-7.7459,-7.7519,-7.7533,-7.762,-7.7636,-7.7647,-7.7649,-7.7645,-7.7643,-7.7664,-7.7655,-7.7654,-7.7653,-7.7652,-7.7651,0,-7.7006,-7.7033,-7.713,-7.7186,-7.7202,-7.7264,-7.7311,-7.7365,-7.7388,-7.7464,-7.7483,-7.7517,-7.7588,-7.761,-7.7695,-7.7705,-7.7806,-7.7802,-7.7788,-7.7787,-7.7844,-7.7837,-7.8029,-7.8055,-7.7904,-7.7905,-7.7907,0,-7.7083,-7.7143,-7.7207,-7.7247,-7.7279,-7.7345,-7.7387,-7.7406,-7.7449,-7.7515,-7.756,-7.7631,-7.7687,-7.7801,-7.7834,-7.7899,-7.7895,-7.7959,-7.7905,-7.7899,-7.7893,-7.7888,-7.7893,-7.7967,-7.7968,-7.797,-7.7971,0,-7.7216,-7.7227,-7.7288,-7.7355,-7.7406,-7.7459,-7.751,-7.7544,-7.757,-7.762,-7.7693,-7.7738,-7.7827,-7.7896,-7.7964,-7.7994,-7.7986,-7.7989,-7.8005,-7.7999,-7.7988,-7.7992,-7.7812,-7.7982,-7.7981,-7.798,-7.798,-7.7979,-7.7308,-7.7361,-7.7414,-7.7483,-7.7525,-7.7573,-7.7626,-7.7657,-7.7719,-7.7792,-7.7801,-7.788,-7.7932,-7.8022,-7.8056,-7.8118,-7.81,-7.8124,-7.813,-7.8135,-7.8138,-7.7982,-7.8131,-7.8131,-7.813,-7.813,-7.813,0,-7.7438,-7.7473,-7.7537,-7.761,-7.7665,-7.7657,-7.7714,-7.776,-7.7829,-7.788,-7.7937,-7.8022,-7.8091,-7.8131,-7.8199,-7.8241,-7.824,-7.8258,-7.8253,-7.826,-7.8151,-7.8129,-7.8258,-7.8258,-7.8258,-7.8258,-7.8258,-7.8258,-7.7512,-7.7601,-7.7619,-7.7729,-7.7764,-7.7842,-7.7875,-7.792,-7.7961,-7.8056,-7.8114,-7.814,-7.8187,-7.8259,-7.8322,-7.8332,-7.8356,-7.8377,-7.8384,-7.8281,-7.8268,-7.8255,-7.8233,-7.8383,-7.8383,-7.8487,-7.8488,-7.8489]},{"header":{"parameterUnit":"m.s-1","parameterCategory":1,"la1":30.2991,"la2":30.254,"lo1":-89.0895,"lo2":-89.0444,"dy":0.0017,"dx":0.0017,"nx":28,"ny":28,"refTime":"2024-12-25T03:00:00:Z","depth":0,"parameterNumber":3,"parameterNumberName":"V-component_of_WINDS"},"data":[0,0,0,0,0,0,0,0,0,0,0,0,0,0,0,0,0,0,0,0,0,0,0,0,0,0,0,0,0,0,0,0,0,0,0,0,0,0,0,0,0,0,0,0,0,0,0,0,0,0,0,0,0,0,0,0,0,0,2.6569,2.6569,0,2.6609,2.661,2.661,2.6609,2.6609,2.6608,2.6608,2.6646,2.6648,2.665,0,0,0,0,0,0,0,0,0,0,0,0,0,2.6491,2.6493,2.6569,2.6569,2.657,2.6609,2.661,2.6611,2.6609,2.6609,2.6608,2.6607,2.6646,2.6648,2.665,0,0,0,0,0,0,0,0,0,0,0,0,0,2.6528,2.6493,2.6569,2.6574,2.6575,2.6609,2.661,2.6611,2.6609,2.6609,2.6608,2.6607,2.6645,2.6648,2.665,2.6681,0,0,2.6657,2.6658,0,0,0,0,0,0,0,0,2.6526,2.653,2.6573,2.6574,2.6575,2.6604,2.6597,2.6634,2.661,2.6596,2.6608,2.6607,2.6633,2.6636,2.6645,2.6683,2.6684,2.6657,2.6659,2.666,2.666,0,0,0,0,0,0,0,2.6523,2.6529,2.6585,2.6574,2.6575,2.6575,2.6579,2.6604,2.6618,2.6597,2.6597,2.6602,2.6633,2.6643,2.6646,2.6685,2.6657,2.6659,2.6661,2.6662,2.6754,2.6755,0,0,0,0,0,0,2.652,2.6527,2.6584,2.6586,2.6548,2.6577,2.6582,2.6595,2.6618,2.6621,2.6603,2.6602,2.664,2.6643,2.6648,2.6688,2.666,2.6662,2.6663,2.6753,2.6754,2.6755,0,0,0,0,0,0,2.6518,2.6525,2.6582,2.6557,2.6564,2.6579,2.6594,2.6596,2.6606,2.6623,2.6625,2.6611,2.6639,2.6644,2.6674,2.6689,2.6663,2.6665,2.6751,2.6753,2.6754,2.6767,0,0,0,0,0,0,2.6516,2.6524,2.6535,2.6557,2.6565,2.6607,2.6595,2.6598,2.6611,2.661,2.663,2.6633,2.6639,2.667,2.6676,2.6692,2.6667,2.675,2.6752,2.6754,2.6765,2.6769,2.6772,0,0,0,0,0,2.6513,2.6536,2.6536,2.6543,2.658,2.6608,2.6613,2.662,2.6612,2.6624,2.6635,2.6632,2.6687,2.6673,2.668,2.6696,2.6749,2.6752,2.6754,2.6764,2.6768,2.6772,0,0,0,0,0,0,2.6514,2.6538,2.6539,2.6569,2.6587,2.6608,2.6623,2.6624,2.6643,2.6641,2.6648,2.6653,2.6683,2.6693,2.6677,2.673,2.6717,2.6721,2.6722,2.6727,2.673,2.6727,2.6669,0,0,0,0,0,2.6518,2.6539,2.6559,2.6584,2.6593,2.6607,2.6619,2.6624,2.6642,2.6649,2.6662,2.6679,2.67,2.6714,2.6734,2.6767,2.6773,2.6782,2.6785,2.6788,2.6791,2.6813,2.6818,2.6763,2.6763,2.6763,0,0,2.6526,2.6542,2.6554,2.6585,2.6599,2.6622,2.6613,2.6636,2.6653,2.6652,2.6681,2.6692,2.6712,2.6744,2.6759,2.6753,2.6808,2.6791,2.6793,2.6795,2.6816,2.6821,2.6826,2.6764,2.6764,2.6764,0,0,2.6552,2.6565,2.659,2.6605,2.6627,2.6637,2.6643,2.6665,2.6672,2.6703,2.6703,2.6724,2.6759,2.6775,2.6787,2.6824,2.6823,2.6831,2.6848,2.6869,2.6873,2.6877,2.6893,2.6898,2.6834,2.6834,2.6834,0,2.6558,2.6593,2.6602,2.6626,2.6641,2.6644,2.6669,2.6683,2.671,2.6721,2.6714,2.6762,2.6775,2.6813,2.6823,2.6832,2.684,2.6828,2.6872,2.6876,2.688,2.6895,2.6901,2.6835,2.6835,2.6835,2.6835,0,2.6601,2.6625,2.6642,2.6671,2.6688,2.6712,2.6726,2.6742,2.6746,2.6757,2.6789,2.6806,2.6831,2.6841,2.6843,2.688,2.6876,2.6871,2.6858,2.6886,2.69,2.6906,2.6836,2.6836,2.6835,2.6835,0,0,2.6626,2.6664,2.667,2.6685,2.6712,2.673,2.6757,2.6783,2.6798,2.6818,2.6841,2.6873,2.687,2.6884,2.6889,2.6908,2.694,2.6901,2.6901,2.6909,2.6984,2.6989,2.6995,2.694,2.6941,2.6942,2.6983,0,2.6657,2.6704,2.6715,2.6756,2.678,2.6785,2.6808,2.6828,2.684,2.6862,2.6874,2.6898,2.6891,2.69,2.6918,2.6932,2.6955,2.6929,2.6962,2.6963,2.6958,2.7003,2.7007,2.7045,2.6989,2.699,2.699,0,2.6697,2.6722,2.6766,2.6794,2.6804,2.6825,2.6852,2.6873,2.6897,2.6904,2.6922,2.6927,2.6956,2.6942,2.6983,2.6965,2.698,2.6989,2.6991,2.6995,2.6979,2.7009,2.7057,2.7064,2.6999,2.6998,2.6998,0,2.6714,2.6757,2.679,2.6803,2.6835,2.685,2.6865,2.6887,2.6904,2.6928,2.694,2.6966,2.6981,2.7002,2.7014,2.7002,2.7055,2.7041,2.7063,2.7063,2.7074,2.7073,2.7126,2.7081,2.7081,2.7081,2.7081,0,2.6747,2.6775,2.6799,2.6819,2.6851,2.6864,2.6895,2.6909,2.6931,2.6955,2.696,2.6982,2.6996,2.7021,2.7031,2.7065,2.7071,2.7078,2.7081,2.7079,2.7078,2.7089,2.7087,2.7082,2.7082,2.7082,2.7081,0,2.6771,2.6788,2.6825,2.6854,2.6863,2.6885,2.691,2.6931,2.6945,2.6975,2.6983,2.7004,2.7034,2.7048,2.7084,2.7091,2.713,2.713,2.7123,2.7124,2.7146,2.7144,2.7209,2.7219,2.7165,2.7166,2.7166,0,2.6791,2.6813,2.6846,2.6864,2.6879,2.6906,2.6925,2.694,2.6959,2.699,2.7008,2.7038,2.7064,2.7111,2.713,2.7158,2.716,2.7181,2.7164,2.7163,2.7163,2.7162,2.7165,2.7184,2.7184,2.7184,2.7185,0,2.6826,2.6835,2.6862,2.6893,2.6916,2.694,2.6964,2.6978,2.6997,2.7019,2.7051,2.7071,2.711,2.7141,2.7172,2.7187,2.719,2.719,2.7197,2.7196,2.7192,2.7197,2.7133,2.7189,2.7188,2.7188,2.7188,2.7188,2.685,2.6871,2.69,2.693,2.6951,2.6975,2.6997,2.7015,2.7042,2.7077,2.7084,2.7119,2.7145,2.7188,2.7204,2.7232,2.7227,2.7236,2.7239,2.7241,2.7244,2.7187,2.7237,2.7237,2.7237,2.7237,2.7237,0,2.6887,2.6907,2.6935,2.6971,2.6996,2.6999,2.7027,2.7048,2.7079,2.7104,2.713,2.7169,2.72,2.7223,2.7255,2.7273,2.7276,2.7281,2.7281,2.7285,2.7245,2.7237,2.7279,2.7279,2.7279,2.7279,2.7279,2.7279,2.691,2.6947,2.696,2.7008,2.7028,2.7063,2.708,2.7102,2.7123,2.7167,2.7194,2.7209,2.7234,2.7269,2.7299,2.7305,2.7317,2.7323,2.7329,2.7291,2.7287,2.7283,2.7275,2.7325,2.7325,2.7367,2.7367,2.7368]}]]